TimeCDT,TemperatureF,Dew PointF,Humidity,Sea Level PressureIn,VisibilityMPH,Wind Direction,Wind SpeedMPH,Gust SpeedMPH,PrecipitationIn,Events,Conditions,WindDirDegrees,DateUTC
12:15 AM,25.3,20.8,83,30.33,10.0,West,8.1,-,N/A,,Clear,280,2014-03-09 06:15:00
12:35 AM,26.2,21.7,83,30.33,10.0,West,5.8,-,N/A,,Clear,280,2014-03-09 06:35:00
12:55 AM,26.1,21.6,83,30.32,10.0,West,8.1,-,N/A,,Clear,280,2014-03-09 06:55:00
1:20 AM,24.4,20.5,85,30.32,10.0,WNW,8.1,-,N/A,,Clear,290,2014-03-09 07:20:00
1:35 AM,24.1,20.3,85,30.32,10.0,WNW,5.8,-,N/A,,Clear,290,2014-03-09 07:35:00
1:55 AM,23.9,20.3,86,30.32,10.0,West,6.9,-,N/A,,Clear,280,2014-03-09 07:55:00
3:15 AM,23.7,19.9,85,30.31,10.0,West,5.8,-,N/A,,Clear,270,2014-03-09 08:15:00
3:35 AM,25.2,22.3,89,30.31,10.0,WNW,8.1,-,N/A,,Clear,290,2014-03-09 08:35:00
3:55 AM,24.3,21.4,89,30.30,10.0,WNW,8.1,-,N/A,,Clear,290,2014-03-09 08:55:00
4:15 AM,23.0,20.7,91,30.30,10.0,WNW,9.2,-,N/A,,Clear,290,2014-03-09 09:15:00
4:35 AM,24.1,22.1,92,30.29,10.0,West,10.4,-,N/A,,Clear,280,2014-03-09 09:35:00
4:55 AM,25.0,23.2,93,30.29,10.0,West,8.1,-,N/A,,Clear,260,2014-03-09 09:55:00
5:15 AM,25.5,23.7,93,30.29,10.0,West,8.1,-,N/A,,Clear,260,2014-03-09 10:15:00
5:35 AM,22.5,20.7,93,30.29,7.0,WSW,5.8,-,N/A,,Clear,250,2014-03-09 10:35:00
5:55 AM,23.9,22.8,96,30.29,7.0,West,8.1,-,N/A,,Clear,270,2014-03-09 10:55:00
6:15 AM,24.8,23.7,96,30.29,10.0,West,9.2,-,N/A,,Clear,270,2014-03-09 11:15:00
6:35 AM,24.4,22.6,93,30.29,10.0,West,8.1,-,N/A,,Clear,260,2014-03-09 11:35:00
6:55 AM,24.8,23.4,94,30.29,10.0,West,9.2,-,N/A,,Clear,260,2014-03-09 11:55:00
7:15 AM,24.6,22.8,93,30.29,10.0,WSW,8.1,-,N/A,,Clear,250,2014-03-09 12:15:00
7:40 AM,26.6,23.7,89,30.29,10.0,West,10.4,-,N/A,,Clear,270,2014-03-09 12:40:00
7:55 AM,26.2,22.6,86,30.28,10.0,West,9.2,-,N/A,,Clear,260,2014-03-09 12:55:00
8:15 AM,26.2,22.5,86,30.29,10.0,WSW,8.1,-,N/A,,Clear,250,2014-03-09 13:15:00
8:35 AM,25.7,22.6,88,30.29,10.0,WSW,8.1,-,N/A,,Clear,250,2014-03-09 13:35:00
9:20 AM,33.8,27.9,79,30.29,10.0,SW,6.9,-,N/A,,Clear,230,2014-03-09 14:20:00
9:35 AM,37.8,29.8,73,30.29,10.0,WSW,6.9,-,N/A,,Clear,240,2014-03-09 14:35:00
9:55 AM,42.1,30.2,63,30.28,10.0,SW,8.1,-,N/A,,Clear,230,2014-03-09 14:55:00
10:15 AM,44.4,29.8,57,30.29,10.0,WSW,10.4,-,N/A,,Clear,250,2014-03-09 15:15:00
10:35 AM,48.0,29.8,49,30.29,10.0,WSW,10.4,-,N/A,,Clear,250,2014-03-09 15:35:00
10:55 AM,50.7,29.1,43,30.29,10.0,WSW,15.0,-,N/A,,Clear,240,2014-03-09 15:55:00
11:15 AM,52.3,30.9,44,30.28,10.0,WSW,13.8,-,N/A,,Clear,240,2014-03-09 16:15:00
11:35 AM,53.8,31.3,42,30.28,10.0,SW,16.1,-,N/A,,Clear,230,2014-03-09 16:35:00
11:55 AM,54.7,28.9,37,30.28,10.0,SW,13.8,19.6,N/A,,Clear,230,2014-03-09 16:55:00
12:15 PM,55.6,28.2,35,30.26,10.0,WSW,11.5,16.1,N/A,,Clear,250,2014-03-09 17:15:00
12:40 PM,57.0,27.3,32,30.25,10.0,WSW,11.5,16.1,N/A,,Clear,240,2014-03-09 17:40:00
12:55 PM,58.1,28.0,32,30.24,10.0,WSW,11.5,18.4,N/A,,Clear,250,2014-03-09 17:55:00
1:20 PM,59.0,27.0,29,30.24,10.0,SW,16.1,20.7,N/A,,Clear,230,2014-03-09 18:20:00
1:35 PM,59.9,26.1,27,30.23,10.0,WSW,15.0,20.7,N/A,,Clear,240,2014-03-09 18:35:00
1:55 PM,60.8,24.8,25,30.21,10.0,SW,15.0,25.3,N/A,,Clear,220,2014-03-09 18:55:00
2:15 PM,61.9,25.7,25,30.19,10.0,WSW,12.7,20.7,N/A,,Clear,240,2014-03-09 19:15:00
2:35 PM,63.1,24.4,23,30.17,10.0,SW,17.3,-,N/A,,Clear,220,2014-03-09 19:35:00
2:55 PM,63.9,22.5,21,30.15,10.0,WSW,15.0,23.0,N/A,,Clear,240,2014-03-09 19:55:00
3:15 PM,65.5,22.8,20,30.14,10.0,WSW,13.8,21.9,N/A,,Clear,250,2014-03-09 20:15:00
3:35 PM,65.7,21.0,18,30.13,10.0,WSW,17.3,21.9,N/A,,Clear,240,2014-03-09 20:35:00
3:55 PM,66.2,19.4,17,30.12,10.0,WSW,13.8,19.6,N/A,,Clear,240,2014-03-09 20:55:00
4:15 PM,66.9,20.1,17,30.11,10.0,SW,15.0,21.9,N/A,,Clear,220,2014-03-09 21:15:00
4:35 PM,67.5,19.0,16,30.10,10.0,WSW,17.3,20.7,N/A,,Clear,240,2014-03-09 21:35:00
4:55 PM,67.5,17.4,15,30.10,10.0,SW,16.1,24.2,N/A,,Clear,230,2014-03-09 21:55:00
5:15 PM,68.0,17.6,15,30.09,10.0,SW,15.0,19.6,N/A,,Clear,220,2014-03-09 22:15:00
5:40 PM,67.5,16.0,14,30.08,10.0,SSW,16.1,19.6,N/A,,Clear,210,2014-03-09 22:40:00
5:55 PM,67.6,14.9,13,30.08,10.0,SSW,15.0,-,N/A,,Clear,210,2014-03-09 22:55:00
6:15 PM,67.1,14.7,13,30.07,10.0,SW,16.1,-,N/A,,Clear,220,2014-03-09 23:15:00
6:35 PM,66.6,14.4,13,30.07,10.0,SW,15.0,-,N/A,,Clear,230,2014-03-09 23:35:00
6:55 PM,65.3,15.3,14,30.07,10.0,SW,13.8,-,N/A,,Clear,220,2014-03-09 23:55:00
7:15 PM,63.1,16.7,17,30.06,10.0,SSW,10.4,-,N/A,,Clear,200,2014-03-10 00:15:00
7:35 PM,59.0,17.6,20,30.06,10.0,SSW,11.5,-,N/A,,Clear,200,2014-03-10 00:35:00
7:55 PM,53.4,17.1,24,30.06,10.0,SSW,10.4,-,N/A,,Clear,200,2014-03-10 00:55:00
8:15 PM,49.1,16.5,27,30.06,10.0,SSW,10.4,-,N/A,,Clear,200,2014-03-10 01:15:00
8:35 PM,46.2,15.8,30,30.06,10.0,SSW,9.2,-,N/A,,Clear,210,2014-03-10 01:35:00
9:00 PM,43.7,15.6,32,30.05,10.0,SSW,10.4,-,N/A,,Clear,200,2014-03-10 02:00:00
9:15 PM,43.5,15.6,33,30.05,10.0,SSW,10.4,-,N/A,,Clear,200,2014-03-10 02:15:00
9:35 PM,41.7,14.7,34,30.05,10.0,SSW,9.2,-,N/A,,Clear,210,2014-03-10 02:35:00
9:55 PM,40.3,14.2,35,30.05,10.0,SSW,9.2,-,N/A,,Clear,210,2014-03-10 02:55:00
10:15 PM,41.5,14.0,33,30.06,10.0,SSW,9.2,-,N/A,,Clear,210,2014-03-10 03:15:00
10:35 PM,40.6,12.7,32,30.06,10.0,SSW,11.5,-,N/A,,Clear,210,2014-03-10 03:35:00
10:55 PM,38.8,12.7,34,30.06,10.0,SSW,10.4,-,N/A,,Clear,210,2014-03-10 03:55:00
11:35 PM,37.2,14.0,39,30.05,10.0,SSW,9.2,-,N/A,,Clear,210,2014-03-10 04:35:00
12:00 AM,36.1,13.1,39,30.05,10.0,SSW,10.4,-,N/A,,Clear,200,2014-03-10 05:00:00
12:15 AM,33.8,13.8,44,30.05,10.0,SSW,9.2,-,N/A,,Clear,210,2014-03-10 05:15:00
12:35 AM,33.8,14.0,44,30.04,10.0,SSW,8.1,-,N/A,,Clear,200,2014-03-10 05:35:00
12:55 AM,34.2,14.7,45,30.04,10.0,SSW,10.4,-,N/A,,Clear,200,2014-03-10 05:55:00